Location: Unspecified
(0.0000°N, 0.0000°E)
Time: 21:54:39
(UTC+00:00)

AO-73 - Visible Passes

Search period start: 22 April 2019 00:00
Search period end: 02 May 2019 00:00
Orbit: 583 x 663 km, 97.6° (Epoch: 22 April)

Date Brightness Start Highest point End Pass type
(mag) Time Alt. Az. Time Alt. Az. Time Alt. Az.
22 Apr ? 18:45:22 10° S 18:49:51 73° WSW 18:54:22 10° NNW visible
23 Apr ? 19:03:54 10° S 19:08:05 39° WSW 19:12:20 10° NNW visible
24 Apr ? 19:22:51 10° SSW 19:26:20 22° WSW 19:29:51 10° NW visible
25 Apr ? 19:42:40 10° SW 19:44:35 12° WSW 19:46:29 10° WNW visible
26 Apr ? 18:22:28 10° SSE 18:26:53 53° ENE 18:31:19 10° N visible
27 Apr ? 18:40:36 10° S 18:45:08 83° WSW 18:49:42 10° NNW visible
28 Apr ? 18:59:03 10° S 19:03:23 45° W 19:07:43 10° NNW visible
29 Apr ? 19:17:53 10° SSW 19:21:37 25° WSW 19:25:21 10° NW visible
30 Apr ? 19:37:25 10° SW 19:39:51 14° WSW 19:42:17 10° WNW visible
01 May ? 18:17:48 10° SSE 18:22:10 47° ENE 18:26:32 10° N visible
